Weather History for Rochester, NH

Change the Weather History Date:

Sunday, April 28, 2013

  Actual Average (KSFM) Record (KSFM)
Temperature  
Mean Temperature 50 °F -  
Max Temperature 66 °F 59 °F 80 °F (2003)
Min Temperature 35 °F 35 °F 24 °F (2006)
Degree Days  
Heating Degree Days 16    
Moisture  
Dew Point 34 °F    
Average Humidity 56    
Maximum Humidity 89    
Minimum Humidity 31    
Precipitation  
Precipitation 0.00 in - - ()
Sea Level Pressure  
Sea Level Pressure 30.28 in    
Wind  
Wind Speed 4 mph (SE)    
Max Wind Speed 13 mph    
Max Gust Speed 20 mph    
Visibility 10 miles    
Events      
Averages and records for this station are not official NWS values.
T = Trace of Precipitation, MM = Missing Value Source: NWS Daily Summary

Daily Weather History Graph

Daily Weather History Graph

Search for Another Location

Airport:

Trip Planner

Search our weather history database for the weather conditions in past years. The results will help you decide how hot, cold, wet, or windy it might be!

Date:

Astronomy

Apr. 28, 2013 Rise Set
Actual Time 5:40 AM EDT 7:42 PM EDT
Civil Twilight 5:10 AM EDT 8:13 PM EDT
Nautical Twilight 4:32 AM EDT 8:51 PM EDT
Astronomical Twilight 3:50 AM EDT 9:32 PM EDT
Moon 11:12 PM EDT (4/28) 7:51 AM EDT (4/28)
Length of Visible Light 15h 03m
Length of Day
14h 01m
Waning Gibbous, 89% of the Moon is Illuminated
Apr 28
Waning Gibbous
May 2
Last Quarter
May 9
New
May 18
First Quarter
May 25
Full

Hourly Weather History & Observations

Time (EDT) Temp. Windchill Dew Point Humidity Pressure Visibility Wind Dir Wind Speed Gust Speed Precip Events Conditions
12:51 AM 39.9 °F - 33.1 °F 77% 30.32 in 10.0 mi Calm Calm - N/A   Clear
1:51 AM 43.0 °F - 33.1 °F 68% 30.31 in 10.0 mi Calm Calm - N/A   Clear
2:51 AM 39.0 °F 36.8 °F 32.0 °F 76% 30.30 in 10.0 mi NW 3.5 mph - N/A   Clear
3:51 AM 37.0 °F 34.5 °F 32.0 °F 82% 30.30 in 10.0 mi NW 3.5 mph - N/A   Mostly Cloudy
4:51 AM 36.0 °F 32.1 °F 33.1 °F 89% 30.30 in 10.0 mi NW 4.6 mph - N/A   Clear
5:51 AM 35.1 °F 29.3 °F 32.0 °F 89% 30.30 in 10.0 mi NW 6.9 mph - N/A   Clear
6:51 AM 39.0 °F - 34.0 °F 82% 30.30 in 10.0 mi Calm Calm - N/A   Clear
7:51 AM 46.9 °F - 36.0 °F 66% 30.32 in 10.0 mi Calm Calm - N/A   Clear
8:51 AM 53.1 °F - 36.0 °F 52% 30.32 in 10.0 mi Calm Calm - N/A   Clear
9:51 AM 60.1 °F - 35.1 °F 39% 30.33 in 10.0 mi Variable 3.5 mph - N/A   Clear
10:51 AM 62.1 °F - 34.0 °F 35% 30.32 in 10.0 mi Variable 6.9 mph 18.4 mph N/A   Clear
11:51 AM 63.0 °F - 35.1 °F 35% 30.30 in 10.0 mi Variable 4.6 mph - N/A   Clear
12:51 PM 64.9 °F - 37.0 °F 36% 30.28 in 10.0 mi SE 8.1 mph 16.1 mph N/A   Clear
1:51 PM 64.9 °F - 35.1 °F 33% 30.28 in 10.0 mi SE 10.4 mph - N/A   Clear
2:51 PM 64.0 °F - 33.1 °F 31% 30.26 in 10.0 mi SE 11.5 mph 18.4 mph N/A   Clear
3:51 PM 62.1 °F - 30.9 °F 31% 30.25 in 10.0 mi SSE 12.7 mph 19.6 mph N/A   Clear
4:51 PM 61.0 °F - 30.0 °F 31% 30.24 in 10.0 mi SE 11.5 mph - N/A   Clear
5:51 PM 59.0 °F - 30.9 °F 35% 30.25 in 10.0 mi SE 10.4 mph 18.4 mph N/A   Clear
6:51 PM 55.0 °F - 33.1 °F 43% 30.25 in 10.0 mi SE 10.4 mph - N/A   Clear
7:51 PM 52.0 °F - 34.0 °F 50% 30.25 in 10.0 mi SE 4.6 mph - N/A   Clear
8:51 PM 48.9 °F - 35.1 °F 59% 30.24 in 10.0 mi ESE 4.6 mph - N/A   Clear
9:51 PM 48.9 °F - 37.0 °F 64% 30.25 in 10.0 mi Calm Calm - N/A   Clear
10:51 PM 46.0 °F - 37.0 °F 71% 30.25 in 10.0 mi Calm Calm - N/A   Clear
11:51 PM 42.1 °F - 36.0 °F 79% 30.25 in 10.0 mi Calm Calm - N/A   Clear